This demonstration page uses our WeatherBlox Daily Observations layout. Learn more.

Left ArrowRight Arrow

Hourly Observations for October 7, 2020

Temp ( °F °C ) Dew Point ( °F °C ) Humidity (%) Winds ( mph kmh ) Pressure ( in mb ) Visibility ( mi km ) Precip ( " mm )
12:53 am 00:53 Clear 61 16.1 41 5 48 48 SSW 5 7 29.90 1012 10 16 0.00 0.00
1:53 am 01:53 Clear 62 16.7 41 5 46 46 SSW 7 11 29.89 1012 10 16 0.00 0.00
2:53 am 02:53 Clear 57 13.9 40 4.4 53 53 SW 5 7 29.90 1013 10 16 0.00 0.00
3:53 am 03:53 Clear 55 12.8 40 4.4 57 57 SW 5 7 29.90 1013 10 16 0.00 0.00
4:53 am 04:53 Clear 54 12.2 40 4.4 59 59 SW 3 6 29.90 1013 10 16 0.00 0.00
5:53 am 05:53 Clear 57 13.9 38 3.3 49 49 WSW 6 9 29.91 1013 10 16 0.00 0.00
6:53 am 06:53 Clear 49 9.4 38 3.3 66 66 N 6 9 29.94 1014 9 14 0.00 0.00
7:53 am 07:53 Hazy 52 11.1 38 3.3 59 59 WSW 5 7 29.95 1014 6 10 0.00 0.00
8:53 am 08:53 Sunny 57 13.9 39 3.9 51 51 SW 5 7 29.95 1014 8 13 0.00 0.00
9:53 am 09:53 Hazy 64 17.8 42 5.6 45 45 NNE 8 13 29.97 1015 6 10 0.00 0.00
10:53 am 10:53 Sunny 73 22.8 40 4.4 30 30 E 8 13 29.97 1015 10 16 0.00 0.00
11:53 am 11:53 Sunny 78 25.6 41 5 27 27 E 10 17 29.98 1015 10 16 0.00 0.00
12:53 pm 12:53 Sunny 82 27.8 42 5.6 24 24 ENE 14 22 29.98 1015 10 16 0.00 0.00
1:53 pm 13:53 Sunny 83 28.3 44 6.7 25 25 E 14 22 29.97 1015 10 16 0.00 0.00
2:53 pm 14:53 Sunny 85 29.4 44 6.7 24 24 ENE 15 24 29.96 1015 10 16 0.00 0.00
3:53 pm 15:53 Sunny 86 30 43 6.1 22 22 E 15 24 29.96 1015 10 16 0.00 0.00
4:53 pm 16:53 Sunny 84 28.9 44 6.7 25 25 E 15 24 29.97 1015 10 16 0.00 0.00
5:53 pm 17:53 Sunny 81 27.2 45 7.2 28 28 E 13 20 29.98 1015 10 16 0.00 0.00
6:53 pm 18:53 Sunny 75 23.9 45 7.2 34 34 ENE 9 15 30.00 1016 9 14 0.00 0.00
7:53 pm 19:53 Clear 71 21.7 45 7.2 39 39 ENE 9 15 30.02 1017 10 16 0.00 0.00
8:53 pm 20:53 Clear 66 18.9 44 6.7 45 45 ENE 9 15 30.03 1017 10 16 0.00 0.00
9:53 pm 21:53 Clear 64 17.8 43 6.1 46 46 ENE 9 15 30.04 1017 10 16 0.00 0.00
10:53 pm 22:53 Clear 61 16.1 42 5.6 50 50 ENE 8 13 30.04 1017 10 16 0.00 0.00
11:53 pm 23:53 Clear 61 16.1 42 5.6 50 50 E 9 15 30.04 1017 10 16 0.00 0.00

Powered by AerisWeather